TimeMST,TemperatureF,Dew PointF,Humidity,Sea Level PressureIn,VisibilityMPH,Wind Direction,Wind SpeedMPH,Gust SpeedMPH,PrecipitationIn,Events,Conditions,WindDirDegrees,DateUTC
12:53 AM,28.9,27.0,92,30.27,10.0,North,5.8,-,0.00,,Mostly Cloudy,10,2013-03-01 07:53:00
1:08 AM,26.6,24.8,93,30.21,10.0,NNE,5.8,-,N/A,,Scattered Clouds,20,2013-03-01 08:08:00
1:53 AM,27.0,25.0,92,30.28,10.0,NNW,4.6,-,N/A,,Mostly Cloudy,340,2013-03-01 08:53:00
2:10 AM,26.6,26.6,100,30.20,1.8,NNW,4.6,-,N/A,,Overcast,340,2013-03-01 09:10:00
2:17 AM,26.6,26.6,100,30.20,0.5,NNW,3.5,-,N/A,Fog,Light Freezing Fog,330,2013-03-01 09:17:00
2:25 AM,26.6,26.6,100,30.20,0.2,WNW,4.6,-,N/A,Fog,Light Freezing Fog,300,2013-03-01 09:25:00
2:53 AM,25.0,25.0,100,30.29,3.0,NW,5.8,-,N/A,,Overcast,320,2013-03-01 09:53:00
3:35 AM,23.0,21.2,93,30.21,1.8,West,8.1,-,N/A,,Overcast,280,2013-03-01 10:35:00
3:51 AM,23.0,21.2,93,30.21,3.0,WNW,5.8,-,N/A,,Mostly Cloudy,300,2013-03-01 10:51:00
3:53 AM,23.0,21.9,96,30.29,5.0,WNW,5.8,-,N/A,,Mostly Cloudy,300,2013-03-01 10:53:00
4:01 AM,24.8,23.0,93,30.21,9.0,NW,6.9,-,N/A,,Scattered Clouds,310,2013-03-01 11:01:00
4:53 AM,24.8,21.2,86,30.23,10.0,NW,9.2,-,N/A,,Clear,320,2013-03-01 11:53:00
5:53 AM,24.1,19.9,84,30.33,10.0,NW,11.5,-,N/A,,Clear,310,2013-03-01 12:53:00
6:53 AM,25.0,21.0,85,30.32,10.0,NW,10.4,-,N/A,,Clear,320,2013-03-01 13:53:00
7:53 AM,30.2,24.8,80,30.26,10.0,NNW,11.5,-,N/A,,Clear,330,2013-03-01 14:53:00
8:53 AM,35.1,27.0,72,30.35,10.0,NNW,16.1,-,N/A,,Clear,340,2013-03-01 15:53:00
9:53 AM,37.0,27.0,67,30.35,10.0,North,15.0,-,N/A,,Clear,350,2013-03-01 16:53:00
10:53 AM,39.0,26.1,60,30.35,10.0,North,17.3,23.0,N/A,,Clear,10,2013-03-01 17:53:00
11:53 AM,41.0,25.0,53,30.34,10.0,North,16.1,25.3,N/A,,Partly Cloudy,360,2013-03-01 18:53:00
12:53 PM,42.1,24.1,49,30.32,10.0,North,15.0,-,N/A,,Mostly Cloudy,350,2013-03-01 19:53:00
1:53 PM,44.1,24.1,45,30.30,10.0,NNW,10.4,21.9,N/A,,Scattered Clouds,340,2013-03-01 20:53:00
2:53 PM,43.0,23.0,45,30.31,10.0,North,13.8,-,N/A,,Clear,360,2013-03-01 21:53:00
3:53 PM,43.0,21.9,43,30.32,10.0,North,9.2,-,N/A,,Clear,350,2013-03-01 22:53:00
4:53 PM,39.9,25.0,55,30.34,10.0,East,5.8,-,N/A,,Clear,80,2013-03-01 23:53:00
5:53 PM,34.0,26.1,73,30.36,10.0,SE,4.6,-,N/A,,Clear,130,2013-03-02 00:53:00
6:53 PM,30.2,24.8,80,30.27,10.0,Calm,Calm,-,N/A,,Clear,0,2013-03-02 01:53:00
7:53 PM,30.9,25.0,79,30.36,10.0,Calm,Calm,-,N/A,,Clear,0,2013-03-02 02:53:00
8:53 PM,28.0,23.0,81,30.36,10.0,SW,3.5,-,N/A,,Clear,230,2013-03-02 03:53:00
9:53 PM,28.0,24.1,85,30.34,10.0,SW,4.6,-,N/A,,Mostly Cloudy,230,2013-03-02 04:53:00
10:53 PM,28.0,24.1,85,30.33,10.0,Calm,Calm,-,N/A,,Overcast,0,2013-03-02 05:53:00
11:53 PM,30.0,25.0,82,30.32,10.0,SSW,4.6,-,N/A,,Overcast,210,2013-03-02 06:53:00